EDT,Max TemperatureF,Mean TemperatureF,Min TemperatureF,Max Dew PointF,MeanDew PointF,Min DewpointF,Max Humidity, Mean Humidity, Min Humidity, Max Sea Level PressureIn, Mean Sea Level PressureIn, Min Sea Level PressureIn, Max VisibilityMiles, Mean VisibilityMiles, Min VisibilityMiles, Max Wind SpeedMPH, Mean Wind SpeedMPH, Max Gust SpeedMPH,PrecipitationIn, CloudCover, Events, WindDirDegrees
2014-4-1,59,45,30,35,28,24,79,52,33,30.14,30.06,29.97,10,10,10,13,5,18,0.00,0,,12
2014-4-2,63,50,36,37,34,31,86,63,33,30.11,30.05,29.99,10,10,8,8,4,,0.00,1,,159
2014-4-3,62,46,29,34,26,17,92,52,19,30.15,30.08,30.01,10,9,5,10,2,,T,0,,9
2014-4-4,48,43,38,36,32,27,93,66,46,30.07,29.95,29.78,10,8,2,16,6,26,0.07,8,Rain,108
2014-4-5,53,44,35,39,31,20,93,70,37,30.04,29.82,29.74,10,8,4,22,7,32,0.00,6,Rain,287
2014-4-6,61,43,25,30,22,14,84,49,16,30.18,30.13,30.04,10,10,10,8,4,,0.00,0,,274
2014-4-7,55,44,32,41,31,18,96,67,24,30.19,30.01,29.71,10,8,2,10,3,18,0.09,4,Rain,29
2014-4-8,67,54,40,52,44,31,100,80,41,29.69,29.48,29.33,10,7,1,20,4,36,0.06,7,Rain,251
2014-4-9,60,45,30,34,25,11,89,48,22,30.02,29.75,29.60,10,10,10,21,7,31,0.00,1,,308
2014-4-10,65,46,27,34,25,19,75,45,25,30.16,30.05,29.97,10,10,10,15,5,26,0.00,0,,171
2014-4-11,70,59,48,53,43,32,96,63,36,30.03,29.97,29.91,10,9,3,12,5,,0.16,6,Rain,263
2014-4-12,72,58,43,46,40,30,100,71,23,30.22,30.12,30.02,10,6,0,15,2,21,0.00,3,Fog,209
2014-4-13,80,62,44,52,46,35,77,56,36,30.17,30.05,29.92,10,10,5,14,5,23,0.03,3,Rain,165
2014-4-14,79,71,62,56,53,52,78,58,39,29.96,29.87,29.79,10,10,10,18,8,30,0.00,1,,171
2014-4-15,67,50,33,61,50,32,94,86,65,29.91,29.66,29.48,10,5,1,18,10,30,1.31,8,Rain-Snow,253
2014-4-16,46,38,29,31,20,14,89,56,29,30.58,30.24,29.92,10,9,1,17,10,24,0.00,2,Snow,351
2014-4-17,53,40,26,27,21,16,81,51,27,30.74,30.65,30.60,10,10,9,9,3,,0.00,0,,132
2014-4-18,50,40,29,30,26,22,82,62,33,30.61,30.46,30.23,10,10,10,8,2,,0.00,1,,138
2014-4-19,65,50,35,35,28,21,82,46,22,30.38,30.26,30.19,10,10,10,16,6,25,0.00,0,,20
2014-4-20,63,48,32,30,25,20,79,45,21,30.49,30.40,30.31,10,10,10,9,3,,0.00,0,,139
2014-4-21,72,52,32,37,26,16,85,42,14,30.29,30.06,29.84,10,10,10,9,3,,0.00,0,,184
2014-4-22,73,59,44,51,44,39,86,61,34,29.82,29.61,29.48,10,10,9,14,4,18,T,2,Rain,183
2014-4-23,58,51,44,51,40,25,89,70,42,29.80,29.59,29.48,10,9,4,24,8,32,0.18,8,Rain,335
2014-4-24,61,49,37,26,18,13,55,30,17,30.01,29.88,29.80,10,10,10,21,11,36,0.00,0,,313
2014-4-25,67,49,31,39,25,22,76,43,19,30.06,29.92,29.78,10,10,9,12,3,18,0.05,1,Rain,171
2014-4-26,65,54,43,49,43,39,93,79,41,29.86,29.76,29.68,10,8,2,8,2,,0.62,7,Rain,340
2014-4-27,58,49,40,39,36,34,86,62,45,30.13,29.98,29.86,10,10,10,10,6,20,T,6,,329
2014-4-28,64,50,36,37,35,33,86,49,33,30.12,30.06,30.00,10,10,10,15,5,24,0.01,1,,18
2014-4-29,50,46,42,39,37,35,82,67,57,30.43,30.31,30.14,10,10,4,15,7,23,0.15,7,Rain,113
2014-4-30,52,47,42,48,41,37,90,85,80,30.44,30.29,30.00,10,5,2,10,5,,1.70,8,Rain,87